Location: Newark
(51.3318°N, 0.0053°E)
Time: 13:02:04
(UTC+00:00)

MOZHAYETS 4 - Pass Details

Date: 26 June 2022
Orbit: 660 x 679 km, 98.2° (Epoch: 12 August)

Event Time Altitude Azimuth Distance (km) Brightness Sun altitude
Exits shadow 01:31:32 - 145° (SE) 2,900 10.7 -12.8°
Reaches altitude 10° 01:33:31 10° 139° (SE) 2,114 10.0 -12.7°
Maximum altitude 01:37:54 45° 68° (ENE) 923 8.8 -12.4°
Drops below altitude 10° 01:42:19 10° 356° (N) 2,120 11.4 -12.2°
Sets 01:44:37 0° 350° (N) 3,036 12.1 -12.0°
